Regional Weather Roundup
Issued by NWS Charleston, SC

Current Version | Previous Version | Graphics & Text | Print | Product List | Glossary On
Versions: 1 2 3 4 5 6 7 8 9 10 11 12 13 14 15 16 17 18 19 20 21 22 23 24 25 26 27 28 29 30 31 32 33 34 35 36 37 38 39 40 41 42 43 44 45 46 47 48 49 50
734
ASUS42 KCHS 231212
RWRCHS

REGIONAL WEATHER ROUNDUP
NATIONAL WEATHER SERVICE CHARLESTON SC
800 AM EDT WED AUG 23 2017

NOTE: "FAIR" INDICATES FEW OR NO CLOUDS BELOW 12,000 FEET WITH NO
SIGNIFICANT WEATHER AND/OR OBSTRUCTIONS TO VISIBILITY.

NOT ALL STATIONS ARE QUALITY CONTROLLED. USE DATA WITH CAUTION...
ESPECIALLY DEWPOINT OBSERVATIONS.

SCZ027-030-031-034>040-042>050-231300-
...SOUTHEAST SOUTH CAROLINA...

CITY           SKY/WX    TMP DP  RH WIND       PRES   REMARKS
N CHARLESTON   MOSUNNY   78  76  93 SW7       29.95S
6HR MIN TEMP:  77; 6HR MAX TEMP:  78;

WATERFRONT PRK   N/A     79  77  94 VRB3      29.79S
JOHNS ISLAND   FAIR      79  77  94 W5        29.95F
PINOPOLIS        N/A     77  75  94 SW8       29.87F
MONCKS CORNER  FAIR      75  73  94 SW6       29.95S
SUMMERVILLE    FAIR      75  73  94 SW3       29.96S
BEAUFORT MCAS  MOSUNNY   79  76  90 SW6       29.96R
6HR MIN TEMP:  77; 6HR MAX TEMP:  79;

BEAUFORT ARPT  FAIR      79  73  83 SW6       29.95F
HILTON HEAD IS SUNNY     79  77  94 CALM      29.97R
WALTERBORO     SUNNY     75  73  94 SW6       29.96S
ALLENDALE      NOT AVBL

...SOUTHERN MIDLANDS AND PEE DEE...

CITY           SKY/WX    TMP DP  RH WIND       PRES   REMARKS
GEORGETOWN     FAIR      73  73 100 SW3       29.95S
KINGSTREE      FAIR      75  73  94 SW3       29.93S
ORANGEBURG     SUNNY     75  73  93 SW6       29.94F
6HR MIN TEMP:  73; 6HR MAX TEMP:  76;

BARNWELL       FAIR      77  75  94 SW5       29.95S
AIKEN          FAIR      73  72  94 SW5       29.98F
MANNING        FAIR      77  59  53 CALM      29.94S
COLUMBIA       MOSUNNY   78  72  81 SW6       29.92S
6HR MIN TEMP:  76; 6HR MAX TEMP:  78;

SUMTER         MOSUNNY   77  73  88 SW10      29.90F
6HR MIN TEMP:  75; 6HR MAX TEMP:  78;

FLORENCE       SUNNY     77  75  93 SW8       29.92S
6HR MIN TEMP:  75; 6HR MAX TEMP:  77;

MYRTLE BEACH   PTSUNNY   79  73  83 W7        29.94F
N MYRTLE BEACH SUNNY     78  74  87 W7        29.92F
6HR MIN TEMP:  77; 6HR MAX TEMP:  80;


$$

GAZ063-065-086>088-099>101-113>116-118-119-134>141-150-231300-
...SOUTHEAST GEORGIA...

CITY           SKY/WX    TMP DP  RH WIND       PRES   REMARKS
SAVANNAH ARPT  MOSUNNY   77  75  93 SW6       29.97R
6HR MIN TEMP:  76; 6HR MAX TEMP:  77;

HUNTER AAF     SUNNY     78  74  88 SW7       29.94S
6HR MIN TEMP:  76; 6HR MAX TEMP:  78; 6HR PCP: TRACE;

FORT STEWART   SUNNY     76  73  90 CALM      29.95R
6HR MIN TEMP:  75; 6HR MAX TEMP:  77;

STATESBORO     SUNNY     77  75  93 CALM      29.96S
SYLVANIA         N/A     75  75 100 CALM      29.97S
CLAXTON        FAIR      75  75  98 CALM      29.96F FOG

...CSRA...CENTRAL AND FAR SOUTHEAST GEORGIA...

CITY           SKY/WX    TMP DP  RH WIND       PRES   REMARKS
THOMSON        SUNNY     75  73  93 CALM      30.00S
AUGUSTA-BUSH   SUNNY     77  74  90 CALM      29.94S
6HR MIN TEMP:  73; 6HR MAX TEMP:  77;

AUGUSTA-DANIEL SUNNY     77  72  84 S5        29.95S
SWAINSBORO     FAIR      73  73 100 CALM      29.98S
VIDALIA        SUNNY     75  73  94 CALM      29.98R
EASTMAN        FAIR      76  76 100 CALM      30.00R
HAZLEHURST     FAIR      78  74  88 SW3       29.97R
ALMA           SUNNY     76  74  93 S3        29.98R
6HR MIN TEMP:  73; 6HR MAX TEMP:  76;

WAYCROSS       SUNNY     77  74  90 SW6       29.98S
JESUP          NOT AVBL
BAXLEY         FAIR      72  72 100 CALM      29.97S
BRUNSWICK      MOSUNNY   77  72  83 W6        29.98S
SAINT SIMONS   SUNNY     80  75  84 W8        29.97S
6HR MIN TEMP:  78; 6HR MAX TEMP:  83;


$$

SCZ027-028-034-036>038-045-046-048>050-GAZ119-141-231300-
...LAKE AND SUPPLEMENTAL COASTAL OBSERVATIONS...

STATION/POSITION TIME  TEMP    WIND        PRES    WAVE   SWELL
                       AIR SEA DIR/SP/G            HT/PER HT/PER/DIR
                 (UTC) (F)     (DEG/KT/KT) (MB)    (FT/S) (FT/S/D)
WINYAH BAY       1045   78     270/  5     1014.0
LAKE MURRAY      1120   79     250/  8/ 11 1012.5S
ACE BASIN NERRS  1045   78     230/  2     1014.0
FORT PULASKI     1148   80 86  250/  4/  6 1014.9R
SAPELO ISLAND    1100   79     230/  9     1015.0

$$

ANZ835-935-AMZ111-154-330-350-352-354-370-450-454-472-231300-
...C-MAN AND BUOY OBSERVATIONS...

STATION/POSITION TIME  TEMP    WIND        PRES    WAVE   SWELL
                       AIR SEA DIR/SP/G            HT/PER HT/PER/DIR
                 (UTC) (F)     (DEG/KT/KT) (MB)    (FT/S) (FT/S/D)
BUOY 41004       1150   81 84  210/ 14/ 16 1013.6F   5/10   3/120/10
BUOY 41008       1150   83 85  220/ 14/ 16 1014.1S   3/10   3/ 70/10
FOLLY BEACH CMAN 1100   80     260/  7/ 12 1014.8S
CAPERS NEARSHORE 1108   80 85  280/ 12/ 17 1013.7F
FRIPP NEARSHORE  1108   83     250/ 14/ 17 1013.9S


STATION/POSITION TIME  TEMP    WIND        PRES    WAVE   SWELL
                       AIR SEA DIR/SP/G            HT/PER HT/PER/DIR
                 (UTC) (F)     (DEG/KT/KT) (MB)    (FT/S) (FT/S/D)
5E ST. MARYS GA  1130      84                N/A     3/ 9
FRYING PAN BUOY  1150   79 84  270/ 14/ 17 1013.6R   4/ 9   2/120/ 9
BUOY 41025       1150   83 85  250/ 16/ 17 1012.6F   4/ 5   2/130/ 9
CAPE LOOKOUT NC  1100   78     270/ 11/ 13 1012.7F
BUOY 41002       1050   82 84  250/  4/  6 1015.2    3/ 8   3/110/ 8
BUOY 41010       1150   81 85  260/ 10/ 17 1014.8R   4/ 9   3/100/ 9
ST AUGUSTINE FL  1200   78 81  290/  3/  4 1015.4R


$$




USA.gov is the U.S. government's official web portal to all federal, state and local government web resources and services.